Emporia, Virginia, United States (23847)
Lat: 36.69N, Lon: 77.54W
Wx Zone: VAZ087
Local Info
Past Weather Observations for Tuesday, April 15, 2014

NOTE: This archive is for the closest National Weather Service station to Emporia. Information may differ from the station used for current weather conditions.

Time Weather Temperature Dewpoint Humidity Pressure Winds Precip Visibility
23:55
Clear
37°F / 3°C 34°F / 1°C 87% 30.04 in
(1017 mb)
NNW 10.4 mph
(NNW 17 kph)
- 10SM
23:35
Clear
37°F / 3°C 34°F / 1°C 87% 30.06 in
(1018 mb)
NNW 12.7 mph
(NNW 20 kph)
- 10SM
23:15
Partly Cloudy
37°F / 3°C 34°F / 1°C 87% 30.04 in
(1017 mb)
NNW 17.3 mph
(NNW 28 kph)
- 10SM
22:55
Mostly Cloudy
39°F / 4°C 36°F / 2°C 87% 30.04 in
(1017 mb)
NNW 13.8 mph
(NNW 22 kph)
- 10SM
22:35
Mostly Cloudy
41°F / 5°C 36°F / 2°C 81% 29.98 in
(1015 mb)
NNW 18.4 mph
(NNW 30 kph)
- 10SM
22:15
Overcast
Light Rain
41°F / 5°C 37°F / 3°C 87% 30.04 in
(1017 mb)
NNW 13.8 mph
(NNW 22 kph)
- 10SM
21:55
Overcast
Light Rain
41°F / 5°C 37°F / 3°C 87% 29.98 in
(1015 mb)
NNW 15 mph
(NNW 24 kph)
0.06 in
(1.52 mm)
7SM
21:35
Overcast
Light Snow
41°F / 5°C 39°F / 4°C 93% 29.95 in
(1014 mb)
NNW 15 mph
(NNW 24 kph)
0.05 in
(1.27 mm)
5SM
21:15
Overcast
Rain
43°F / 6°C 39°F / 4°C 87% 29.95 in
(1014 mb)
NNW 11.5 mph
(NNW 19 kph)
0.03 in
(0.76 mm)
4SM
20:55
Overcast
Rain
43°F / 6°C 41°F / 5°C 93% 29.92 in
(1013 mb)
N 10.4 mph
(N 17 kph)
0.07 in
(1.78 mm)
4SM
20:35
Overcast
Rain
43°F / 6°C 41°F / 5°C 93% 29.92 in
(1013 mb)
N 15 mph
(N 24 kph)
0.04 in
(1.02 mm)
5SM
20:15
Overcast
Rain
45°F / 7°C 43°F / 6°C 93% 29.89 in
(1012 mb)
NNW 15 mph
(NNW 24 kph)
0.01 in
(0.25 mm)
7SM
19:55
Overcast
Light Rain
45°F / 7°C 43°F / 6°C 93% 29.86 in
(1011 mb)
NNW 20.7 mph
(NNW 33 kph)
0.07 in
(1.78 mm)
5SM
19:35
Overcast
Heavy Rain
46°F / 8°C 45°F / 7°C 93% 29.83 in
(1010 mb)
N 18.4 mph
(N 30 kph)
0.05 in
(1.27 mm)
5SM
19:15
Overcast
Rain
50°F / 10°C 46°F / 8°C 88% 29.8 in
(1009 mb)
NNW 12.7 mph
(NNW 20 kph)
0.03 in
(0.76 mm)
7SM
18:55
Overcast
Light Snow
50°F / 10°C 48°F / 9°C 94% 29.77 in
(1008 mb)
NNW 12.7 mph
(NNW 20 kph)
0.31 in
(7.87 mm)
2SM
18:35
Overcast
Light Snow
52°F / 11°C 50°F / 10°C 94% 29.74 in
(1007 mb)
NW 15 mph
(NW 24 kph)
0.16 in
(4.06 mm)
2SM
18:15
Overcast
Rain
52°F / 11°C 50°F / 10°C 94% 29.71 in
(1006 mb)
NW 15 mph
(NW 24 kph)
0.04 in
(1.02 mm)
5SM
17:55
Overcast
Light Snow
54°F / 12°C 52°F / 11°C 94% 29.71 in
(1006 mb)
NW 23 mph
(NW 37 kph)
0.33 in
(8.38 mm)
1 1/2SM
17:35
Overcast
Heavy Rain
55°F / 13°C 55°F / 13°C 100% 29.68 in
(1005 mb)
NW 15 mph
(NW 24 kph)
0.25 in
(6.35 mm)
4SM
17:15
Overcast
Heavy Snow
59°F / 15°C 57°F / 14°C 94% 29.68 in
(1005 mb)
SSW 12.7 mph
(SSW 20 kph)
0.07 in
(1.78 mm)
2 1/2SM
16:55
Overcast
Rain
66°F / 19°C 64°F / 18°C 94% 29.62 in
(1003 mb)
SSE 4.6 mph
(SSE 7 kph)
0.01 in
(0.25 mm)
7SM
16:35
Overcast
Light Rain
68°F / 20°C 64°F / 18°C 88% 29.62 in
(1003 mb)
S 5.8 mph
(S 9 kph)
- 10SM
16:15
Overcast
68°F / 20°C 64°F / 18°C 88% 29.62 in
(1003 mb)
SSE 5.8 mph
(SSE 9 kph)
- 10SM
15:55
Overcast
Light Snow
68°F / 20°C 64°F / 18°C 88% 29.59 in
(1002 mb)
SSE 8.1 mph
(SSE 13 kph)
0.05 in
(1.27 mm)
10SM
15:35
Overcast
68°F / 20°C 64°F / 18°C 88% 29.62 in
(1003 mb)
SSE 6.9 mph
(SSE 11 kph)
0.05 in
(1.27 mm)
10SM
15:15
Overcast
Snow
68°F / 20°C 64°F / 18°C 88% 29.62 in
(1003 mb)
S 13.8 mph
(S 22 kph)
0.05 in
(1.27 mm)
1 1/2SM
14:55
Mostly Cloudy
70°F / 21°C 64°F / 18°C 83% 29.62 in
(1003 mb)
SSE 5.8 mph
(SSE 9 kph)
- 10SM
14:35
Partly Cloudy
Drizzle
70°F / 21°C 64°F / 18°C 83% 29.62 in
(1003 mb)
SSE 6.9 mph
(SSE 11 kph)
- 10SM
14:15
Mostly Cloudy
70°F / 21°C 64°F / 18°C 83% 29.65 in
(1004 mb)
S 5.8 mph
(S 9 kph)
- 10SM
13:55
Mostly Cloudy
68°F / 20°C 64°F / 18°C 88% 29.65 in
(1004 mb)
SSE 5.8 mph
(SSE 9 kph)
- 10SM
13:35
Overcast
68°F / 20°C 64°F / 18°C 88% 29.68 in
(1005 mb)
S 6.9 mph
(S 11 kph)
- 10SM
13:15
Overcast
68°F / 20°C 64°F / 18°C 88% 29.68 in
(1005 mb)
S 8.1 mph
(S 13 kph)
- 10SM
12:55
Overcast
Rain
68°F / 20°C 64°F / 18°C 88% 29.68 in
(1005 mb)
S 8.1 mph
(S 13 kph)
0.02 in
(0.51 mm)
7SM
12:35
Overcast
Drizzle
68°F / 20°C 64°F / 18°C 88% 29.68 in
(1005 mb)
S 8.1 mph
(S 13 kph)
- 10SM
12:15
Mostly Cloudy
Light Rain
68°F / 20°C 64°F / 18°C 88% 29.68 in
(1005 mb)
SE 6.9 mph
(SE 11 kph)
- 10SM
11:55
Overcast
68°F / 20°C 64°F / 18°C 88% 29.71 in
(1006 mb)
SSE 9.2 mph
(SSE 15 kph)
- 10SM
11:35
Overcast
Light Rain
68°F / 20°C 63°F / 17°C 83% 29.71 in
(1006 mb)
SSE 5.8 mph
(SSE 9 kph)
- 10SM
11:15
Overcast
68°F / 20°C 63°F / 17°C 83% 29.71 in
(1006 mb)
SSE 5.8 mph
(SSE 9 kph)
- 10SM
10:55
Overcast
68°F / 20°C 64°F / 18°C 88% 29.71 in
(1006 mb)
SSE 8.1 mph
(SSE 13 kph)
-
10:35
Partly Cloudy
66°F / 19°C 64°F / 18°C 94% 29.71 in
(1006 mb)
SSE 10.4 mph
(SSE 17 kph)
- 10SM
10:15
Mostly Cloudy
66°F / 19°C 64°F / 18°C 94% 29.71 in
(1006 mb)
SSE 5.8 mph
(SSE 9 kph)
- 10SM
09:55
Overcast
64°F / 18°C 64°F / 18°C 100% 29.71 in
(1006 mb)
SE 11.5 mph
(SE 19 kph)
- 10SM
09:35
Overcast
64°F / 18°C 64°F / 18°C 100% 29.71 in
(1006 mb)
SE 12.7 mph
(SE 20 kph)
- 10SM
09:15
Overcast
Light Rain
64°F / 18°C 64°F / 18°C 100% 29.71 in
(1006 mb)
SE 8.1 mph
(SE 13 kph)
- 10SM
08:55
Overcast
Light Rain
64°F / 18°C 63°F / 17°C 94% 29.71 in
(1006 mb)
SSE 6.9 mph
(SSE 11 kph)
0.11 in
(2.79 mm)
10SM
08:35
Overcast
Thunder Storms
64°F / 18°C 63°F / 17°C 94% 29.74 in
(1007 mb)
S 6.9 mph
(S 11 kph)
0.09 in
(2.29 mm)
4SM
08:15
Overcast
Heavy Rain
64°F / 18°C 63°F / 17°C 94% 29.74 in
(1007 mb)
S 9.2 mph
(S 15 kph)
0.04 in
(1.02 mm)
7SM
07:55
Overcast
Rain
66°F / 19°C 64°F / 18°C 94% 29.74 in
(1007 mb)
S 12.7 mph
(S 20 kph)
0.57 in
(14.48 mm)
5SM
07:35
Overcast
Snow
68°F / 20°C 64°F / 18°C 88% 29.74 in
(1007 mb)
S 10.4 mph
(S 17 kph)
0.35 in
(8.89 mm)
1 1/2SM
07:15
Overcast
Light Snow
68°F / 20°C 64°F / 18°C 88% 29.71 in
(1006 mb)
SE 9.2 mph
(SE 15 kph)
0.09 in
(2.29 mm)
3SM
06:55
Overcast
Heavy Snow
66°F / 19°C 64°F / 18°C 94% 29.74 in
(1007 mb)
SSE 23 mph
(SSE 37 kph)
0.50 in
(12.70 mm)
1 1/2SM
06:35
Overcast
Thunder Storms
68°F / 20°C 64°F / 18°C 88% 29.74 in
(1007 mb)
SE 13.8 mph
(SE 22 kph)
0.04 in
(1.02 mm)
5SM
06:15
Overcast
Unknown Precip
68°F / 20°C 64°F / 18°C 88% 29.74 in
(1007 mb)
SE 12.7 mph
(SE 20 kph)
- 10SM
05:55
Overcast
68°F / 20°C 64°F / 18°C 88% 29.74 in
(1007 mb)
SE 11.5 mph
(SE 19 kph)
- 10SM
05:35
Overcast
68°F / 20°C 64°F / 18°C 88% 29.74 in
(1007 mb)
SE 11.5 mph
(SE 19 kph)
- 10SM
05:15
Overcast
68°F / 20°C 64°F / 18°C 88% 29.74 in
(1007 mb)
SE 10.4 mph
(SE 17 kph)
- 10SM
04:55
Overcast
68°F / 20°C 64°F / 18°C 88% 29.74 in
(1007 mb)
SE 10.4 mph
(SE 17 kph)
- 10SM
04:35
Overcast
68°F / 20°C 63°F / 17°C 83% 29.74 in
(1007 mb)
SE 10.4 mph
(SE 17 kph)
- 10SM
04:15
Overcast
68°F / 20°C 63°F / 17°C 83% 29.77 in
(1008 mb)
SE 9.2 mph
(SE 15 kph)
- 10SM
03:55
Overcast
68°F / 20°C 63°F / 17°C 83% 29.77 in
(1008 mb)
SE 9.2 mph
(SE 15 kph)
- 10SM
03:35
Overcast
68°F / 20°C 63°F / 17°C 83% 29.77 in
(1008 mb)
SSE 8.1 mph
(SSE 13 kph)
- 10SM
03:15
Overcast
68°F / 20°C 63°F / 17°C 83% 29.8 in
(1009 mb)
SSE 8.1 mph
(SSE 13 kph)
- 10SM
02:55
Overcast
68°F / 20°C 63°F / 17°C 83% 29.8 in
(1009 mb)
SE 10.4 mph
(SE 17 kph)
- 10SM
02:35
Overcast
68°F / 20°C 63°F / 17°C 83% 29.8 in
(1009 mb)
SSE 10.4 mph
(SSE 17 kph)
- 10SM
02:15
Overcast
68°F / 20°C 63°F / 17°C 83% 29.8 in
(1009 mb)
SSE 6.9 mph
(SSE 11 kph)
- 10SM
01:55
Overcast
68°F / 20°C 63°F / 17°C 83% 29.8 in
(1009 mb)
SSE 9.2 mph
(SSE 15 kph)
- 10SM
01:35
Overcast
68°F / 20°C 63°F / 17°C 83% 29.83 in
(1010 mb)
SSE 9.2 mph
(SSE 15 kph)
- 10SM
01:15
Overcast
68°F / 20°C 63°F / 17°C 83% 29.83 in
(1010 mb)
SE 9.2 mph
(SE 15 kph)
- 10SM
00:55
Overcast
68°F / 20°C 63°F / 17°C 83% 29.86 in
(1011 mb)
SSE 8.1 mph
(SSE 13 kph)
- 10SM
00:35
Overcast
68°F / 20°C 63°F / 17°C 83% 29.86 in
(1011 mb)
SSE 8.1 mph
(SSE 13 kph)
- 10SM
00:15
Overcast
68°F / 20°C 63°F / 17°C 83% 29.86 in
(1011 mb)
SSE 10.4 mph
(SSE 17 kph)
- 10SM
Time Weather Temperature Dewpoint Humidity Pressure Winds Precip Visibility


Weather for websites

WeatherForYou.com, LLC is not responsible for any damages or problems caused by this service. Current weather conditions are obtained from the closest station including government and personal stations which may have varying degrees of accuracy. Weather forecasts are derived from the NOAA NDFD. Like all things, this site belongs to Jesus Christ... He just trusts me to maintain it. If you have any questions or comments email webmaster@weatherforyou.com

Copyright © 2014, WeatherForYou.com LLC. All rights reserved.